[[{"header":{"parameterUnit":"m.s-1","parameterCategory":2,"la1":30.2991,"la2":30.254,"lo1":-89.0895,"lo2":-89.0444,"dy":0.0017,"dx":0.0017,"nx":28,"ny":28,"refTime":"2025-06-02T21:00:00:Z","depth":"0","parameterNumber":2,"parameterNumberName":"U-component_of_CURRENTS"},"data":[0,0,0,0,0,0,0,0,0,0,0,0,0,0,0,0,0,0,0,0,0,0,0,0,0,0,0,0,0,0,0,0,0,0,0,0,0,0,0,0,0,0,0,0,0,0,0,0,0,0,0,0,0,0,0,0,0,0,0.2648,0.2648,0,0.2638,0.2638,0.2637,0.2559,0.2558,0.2556,0.2555,0.2567,0.2569,0.2571,0,0,0,0,0,0,0,0,0,0,0,0,0,0.2658,0.2658,0.2648,0.2648,0.2648,0.2638,0.2638,0.2637,0.256,0.2558,0.2556,0.2554,0.2567,0.2569,0.2571,0,0,0,0,0,0,0,0,0,0,0,0,0,0.2648,0.2658,0.2648,0.2611,0.2607,0.2638,0.2638,0.2637,0.256,0.2558,0.2555,0.2553,0.2566,0.2569,0.2572,0.2637,0,0,0.258,0.2581,0,0,0,0,0,0,0,0,0.2649,0.2648,0.2616,0.2613,0.261,0.26,0.2646,0.264,0.2561,0.2575,0.2555,0.2552,0.2585,0.2586,0.2584,0.2638,0.2638,0.258,0.2582,0.2583,0.2584,0,0,0,0,0,0,0,0.265,0.2648,0.264,0.2616,0.2613,0.2615,0.261,0.2645,0.2591,0.2573,0.2568,0.2573,0.2582,0.2582,0.2584,0.2639,0.258,0.2583,0.2584,0.2585,0.2749,0.2751,0,0,0,0,0,0,0.2657,0.2649,0.2641,0.2641,0.2628,0.2617,0.2611,0.2603,0.259,0.2587,0.2576,0.257,0.2578,0.2581,0.2584,0.2632,0.2583,0.2586,0.2587,0.2746,0.2749,0.2752,0,0,0,0,0,0,0.2657,0.2656,0.2641,0.2648,0.2646,0.2619,0.2611,0.2604,0.2592,0.2592,0.2588,0.2569,0.2576,0.258,0.2611,0.2633,0.2587,0.2589,0.2743,0.2747,0.2751,0.2748,0,0,0,0,0,0,0.2657,0.2656,0.2662,0.2648,0.2646,0.2667,0.2614,0.2606,0.2602,0.2594,0.2587,0.2585,0.2575,0.2607,0.2614,0.2636,0.2592,0.2739,0.2745,0.2749,0.2745,0.2751,0.2757,0,0,0,0,0,0.2658,0.2683,0.2661,0.2661,0.2651,0.2669,0.2669,0.2639,0.2604,0.2615,0.2602,0.2585,0.2644,0.2611,0.2619,0.2642,0.2737,0.2743,0.2749,0.2742,0.275,0.2757,0,0,0,0,0,0,0.2699,0.2677,0.2653,0.267,0.267,0.2657,0.2674,0.2646,0.2644,0.2635,0.2614,0.2614,0.2654,0.2664,0.2628,0.2711,0.2692,0.2699,0.2684,0.2692,0.2698,0.2704,0.2594,0,0,0,0,0,0.271,0.2711,0.2698,0.2712,0.2717,0.2693,0.2698,0.2677,0.2672,0.2666,0.2654,0.2664,0.2692,0.2699,0.2729,0.2772,0.28,0.2799,0.2805,0.281,0.2825,0.2876,0.2887,0.2772,0.2772,0.2772,0,0,0.2728,0.272,0.2718,0.272,0.2716,0.2724,0.2689,0.2704,0.2697,0.2675,0.2672,0.269,0.2713,0.2753,0.2773,0.2755,0.2865,0.2818,0.2821,0.2834,0.2884,0.2894,0.2904,0.2776,0.2775,0.2774,0,0,0.2767,0.2761,0.2769,0.2773,0.2776,0.2764,0.2768,0.2755,0.2737,0.275,0.2736,0.2767,0.2793,0.281,0.2824,0.2895,0.2901,0.291,0.2932,0.2981,0.299,0.2998,0.3063,0.3077,0.2903,0.2903,0.2903,0,0.2786,0.2786,0.2782,0.2794,0.2794,0.2779,0.2787,0.2784,0.2775,0.277,0.2753,0.2804,0.2823,0.2869,0.2893,0.2906,0.294,0.2887,0.2985,0.2994,0.3002,0.3066,0.3081,0.2904,0.2904,0.2904,0.2904,0,0.2822,0.2823,0.284,0.283,0.284,0.2854,0.2844,0.2847,0.2824,0.2809,0.2844,0.2871,0.2894,0.2917,0.2924,0.2999,0.3008,0.2987,0.2952,0.3012,0.3078,0.3094,0.2905,0.2905,0.2904,0.2904,0,0,0.2832,0.2854,0.2851,0.2842,0.2853,0.2855,0.2871,0.2869,0.2857,0.2872,0.2871,0.2937,0.2941,0.2963,0.2981,0.3032,0.3128,0.3038,0.304,0.3079,0.3254,0.3193,0.3204,0.3113,0.3115,0.3117,0.328,0,0.2845,0.2865,0.2872,0.2875,0.2878,0.2878,0.2882,0.2884,0.2879,0.2883,0.2921,0.294,0.2958,0.2973,0.303,0.3096,0.3169,0.3088,0.3211,0.3216,0.3134,0.322,0.3075,0.3201,0.3295,0.3298,0.33,0,0.285,0.2859,0.2872,0.2867,0.2868,0.2871,0.2862,0.2868,0.2889,0.2887,0.2922,0.2941,0.3025,0.3028,0.3179,0.3122,0.3208,0.3263,0.3269,0.3224,0.3183,0.3158,0.3226,0.3038,0.3324,0.3322,0.332,0,0.2825,0.2843,0.2845,0.2848,0.2858,0.2856,0.2857,0.2866,0.286,0.2895,0.2899,0.2979,0.3014,0.3129,0.323,0.3218,0.3391,0.3379,0.3418,0.3415,0.3324,0.3308,0.3203,0.3519,0.3519,0.3519,0.3518,0,0.2815,0.2806,0.2831,0.2828,0.2817,0.2832,0.2819,0.283,0.2849,0.2846,0.2899,0.2921,0.3041,0.3132,0.3247,0.3369,0.3405,0.3453,0.3457,0.3322,0.3304,0.3161,0.3099,0.3525,0.3523,0.3522,0.3521,0,0.2774,0.2796,0.2793,0.2806,0.2804,0.2794,0.2792,0.2782,0.2806,0.2813,0.2828,0.2897,0.3007,0.3124,0.3304,0.3369,0.3387,0.3543,0.338,0.3361,0.3207,0.3152,0.3064,0.2993,0.3631,0.3631,0.363,0,0.2752,0.2751,0.2766,0.2755,0.2757,0.2746,0.2735,0.2758,0.275,0.2794,0.2798,0.2894,0.2939,0.3156,0.3299,0.3481,0.3358,0.3443,0.3398,0.3194,0.3138,0.3024,0.2963,0.33,0.3297,0.3294,0.3292,0,0.2698,0.2711,0.2711,0.2701,0.2689,0.2669,0.266,0.2651,0.2678,0.2691,0.2718,0.2761,0.2944,0.3021,0.322,0.3331,0.3206,0.3397,0.3223,0.291,0.2744,0.2676,0.3207,0.3269,0.3272,0.3273,0.3275,0.3275,0.2645,0.2641,0.2645,0.262,0.2611,0.2573,0.2528,0.2536,0.2524,0.2513,0.2618,0.2642,0.2747,0.3002,0.3068,0.303,0.3102,0.296,0.2934,0.2853,0.2693,0.318,0.3205,0.3207,0.3209,0.321,0.3211,0,0.2561,0.2564,0.2551,0.2519,0.2469,0.2489,0.2452,0.2395,0.2356,0.2409,0.2428,0.2471,0.2504,0.2587,0.2629,0.2549,0.2502,0.2458,0.224,0.2228,0.2689,0.2574,0.2413,0.2413,0.2413,0.2413,0.2414,0.2414,0.2513,0.2484,0.2483,0.2378,0.2344,0.2245,0.2204,0.2157,0.2164,0.2115,0.2116,0.2174,0.2195,0.2129,0.2007,0.2009,0.184,0.1782,0.1798,0.2058,0.2101,0.2141,0.2012,0.1736,0.1735,0.1238,0.1233,0.123]},{"header":{"parameterUnit":"m.s-1","parameterCategory":2,"la1":30.2991,"la2":30.254,"lo1":-89.0895,"lo2":-89.0444,"dy":0.0017,"dx":0.0017,"nx":28,"ny":28,"refTime":"2025-06-02T21:00:00:Z","depth":"0","parameterNumber":3,"parameterNumberName":"V-component_of_CURRENTS"},"data":[0,0,0,0,0,0,0,0,0,0,0,0,0,0,0,0,0,0,0,0,0,0,0,0,0,0,0,0,0,0,0,0,0,0,0,0,0,0,0,0,0,0,0,0,0,0,0,0,0,0,0,0,0,0,0,0,0,0,-0.018,-0.018,0,-0.021,-0.021,-0.021,-0.0255,-0.0256,-0.0257,-0.0258,-0.0291,-0.0292,-0.0292,0,0,0,0,0,0,0,0,0,0,0,0,0,-0.018,-0.0179,-0.018,-0.018,-0.0181,-0.021,-0.021,-0.021,-0.0255,-0.0256,-0.0257,-0.0258,-0.0291,-0.0291,-0.0292,0,0,0,0,0,0,0,0,0,0,0,0,0,-0.0192,-0.0179,-0.018,-0.0206,-0.0208,-0.0209,-0.021,-0.0211,-0.0255,-0.0256,-0.0257,-0.0258,-0.0291,-0.0291,-0.0292,-0.0272,0,0,-0.0293,-0.0293,0,0,0,0,0,0,0,0,-0.0191,-0.0192,-0.0202,-0.0204,-0.0207,-0.0229,-0.0222,-0.0231,-0.0255,-0.0238,-0.0258,-0.0259,-0.027,-0.0272,-0.0276,-0.0274,-0.0275,-0.0293,-0.0293,-0.0293,-0.0293,0,0,0,0,0,0,0,-0.019,-0.0191,-0.0193,-0.0202,-0.0205,-0.0222,-0.0225,-0.0224,-0.0248,-0.024,-0.0243,-0.0244,-0.0271,-0.0276,-0.0277,-0.0276,-0.0293,-0.0293,-0.0293,-0.0293,-0.021,-0.0207,0,0,0,0,0,0,-0.0183,-0.019,-0.0192,-0.0193,-0.0201,-0.0221,-0.0224,-0.0222,-0.0248,-0.0253,-0.0244,-0.0246,-0.0274,-0.0277,-0.0278,-0.0222,-0.0293,-0.0294,-0.0294,-0.0212,-0.0209,-0.0207,0,0,0,0,0,0,-0.0183,-0.0182,-0.019,-0.0192,-0.0194,-0.0219,-0.0216,-0.0222,-0.0226,-0.0251,-0.0256,-0.0242,-0.0275,-0.0278,-0.0262,-0.0225,-0.0294,-0.0294,-0.0215,-0.0211,-0.0208,-0.0132,0,0,0,0,0,0,-0.0182,-0.0182,-0.0181,-0.0191,-0.0194,-0.0186,-0.0215,-0.0221,-0.0225,-0.0229,-0.0251,-0.0256,-0.0276,-0.0261,-0.0262,-0.0227,-0.0294,-0.0218,-0.0213,-0.0209,-0.0137,-0.0126,-0.0116,0,0,0,0,0,-0.0182,-0.0181,-0.018,-0.0181,-0.019,-0.0186,-0.0188,-0.0211,-0.0223,-0.0219,-0.0224,-0.0255,-0.0233,-0.0259,-0.0261,-0.0226,-0.022,-0.0215,-0.0209,-0.0142,-0.0128,-0.0117,0,0,0,0,0,0,-0.0193,-0.0185,-0.0185,-0.0185,-0.018,-0.0193,-0.0196,-0.0202,-0.0204,-0.0208,-0.0231,-0.0235,-0.0204,-0.0219,-0.0248,-0.0184,-0.0228,-0.0223,-0.0176,-0.0163,-0.0153,-0.0137,-0.0295,0,0,0,0,0,-0.0188,-0.0179,-0.0174,-0.0174,-0.0169,-0.0176,-0.0179,-0.0186,-0.0188,-0.0192,-0.02,-0.0199,-0.0181,-0.0178,-0.0173,-0.0142,-0.015,-0.0116,-0.0105,-0.0096,-0.0081,-0.0053,-0.0039,-0.0189,-0.0189,-0.0189,0,0,-0.0195,-0.0188,-0.0186,-0.0174,-0.0175,-0.0155,-0.0181,-0.0177,-0.0155,-0.0192,-0.0167,-0.0166,-0.0164,-0.0127,-0.0114,-0.0138,-0.0057,-0.0089,-0.0082,-0.0072,-0.0046,-0.0032,-0.0019,-0.0185,-0.0186,-0.0186,0,0,-0.0193,-0.0191,-0.0177,-0.0162,-0.015,-0.0146,-0.0138,-0.0134,-0.0128,-0.01,-0.0109,-0.0078,-0.0072,-0.0049,-0.0039,0.0037,-0.0002,0.0035,0.0099,0.0126,0.0138,0.0148,0.0152,0.0162,0.004,0.004,0.004,0,-0.02,-0.0175,-0.0174,-0.0149,-0.013,-0.0134,-0.0103,-0.0093,-0.0082,-0.0053,-0.0083,-0.0017,-0.0027,0.0049,0.0071,0.0062,0.0056,0.0045,0.0138,0.0149,0.0158,0.0159,0.0169,0.0044,0.0044,0.0043,0.0043,0,-0.0178,-0.0155,-0.0145,-0.0104,-0.0085,-0.0062,-0.0036,-0.0009,0.0,0.002,0.0089,0.0091,0.0132,0.0141,0.0122,0.0202,0.0169,0.0146,0.0101,0.0177,0.0173,0.0183,0.005,0.0049,0.0048,0.0046,0,0,-0.019,-0.0138,-0.0131,-0.0093,-0.0053,-0.0029,0.0022,0.0082,0.0134,0.0152,0.0229,0.0263,0.0267,0.0281,0.0277,0.0302,0.0353,0.0251,0.0251,0.0245,0.0395,0.0354,0.036,0.0337,0.0339,0.0341,0.0362,0,-0.0165,-0.0107,-0.0085,-0.0015,0.0025,0.0056,0.0111,0.0164,0.0202,0.0272,0.0308,0.0364,0.032,0.0345,0.0369,0.0362,0.0382,0.0349,0.033,0.033,0.0277,0.0372,0.0394,0.0413,0.0371,0.0372,0.0373,0,-0.0136,-0.0096,-0.003,0.0058,0.0079,0.0119,0.0224,0.0271,0.0363,0.0395,0.0461,0.0475,0.0538,0.0478,0.051,0.0485,0.045,0.0434,0.0434,0.0378,0.0308,0.0333,0.0431,0.0347,0.0387,0.0386,0.0385,0,-0.0121,-0.0047,0.0011,0.0038,0.0125,0.0172,0.0223,0.0312,0.0377,0.0475,0.0529,0.0592,0.0628,0.0615,0.0568,0.054,0.0587,0.0541,0.0477,0.0472,0.0481,0.0474,0.0492,0.0568,0.0568,0.0568,0.0568,0,-0.0086,-0.0034,0.0022,0.0059,0.0149,0.0197,0.0301,0.036,0.0462,0.0558,0.0588,0.0671,0.0661,0.068,0.0621,0.0583,0.0625,0.0515,0.0492,0.0507,0.0502,0.0418,0.0365,0.0568,0.0568,0.0568,0.0568,0,-0.0063,-0.0033,0.0043,0.0127,0.0158,0.0224,0.0341,0.0422,0.0496,0.0623,0.0657,0.0743,0.0768,0.074,0.0726,0.0651,0.058,0.0583,0.0589,0.0566,0.0413,0.0364,0.0378,0.036,0.0529,0.0528,0.0528,0,-0.004,-0.0005,0.0082,0.0133,0.0175,0.0269,0.0345,0.0435,0.0522,0.0668,0.0739,0.0804,0.0875,0.0839,0.074,0.0658,0.058,0.0584,0.0541,0.0435,0.0364,0.0339,0.0322,0.0581,0.0581,0.0581,0.0581,0,0.0011,0.003,0.009,0.018,0.0258,0.0355,0.0461,0.0531,0.0648,0.0747,0.088,0.0948,0.0934,0.09,0.0772,0.069,0.0542,0.0577,0.0491,0.0438,0.0394,0.0355,0.0509,0.058,0.058,0.058,0.058,0.058,0.0049,0.0095,0.016,0.025,0.0335,0.0441,0.0525,0.0635,0.0767,0.0934,0.0979,0.1115,0.1042,0.0895,0.0756,0.0523,0.0527,0.0447,0.0405,0.0396,0.0364,0.0498,0.052,0.052,0.052,0.052,0.0519,0,0.0105,0.0154,0.0236,0.0343,0.0436,0.0471,0.0612,0.0698,0.0845,0.1013,0.1134,0.1224,0.1077,0.0902,0.0592,0.0399,0.035,0.0294,0.0281,0.0277,0.0427,0.0411,0.0382,0.0382,0.0382,0.0382,0.0382,0.0382,0.0145,0.0221,0.0259,0.0411,0.0487,0.0613,0.0691,0.0808,0.0943,0.1152,0.1295,0.1398,0.13,0.0725,0.0339,0.0245,0.0138,0.0112,0.0051,0.0144,0.0156,0.0166,0.014,0.0055,0.0055,-0.0051,-0.0052,-0.0053]}],[{"header":{"parameterUnit":"m.s-1","parameterCategory":2,"la1":30.2991,"la2":30.254,"lo1":-89.0895,"lo2":-89.0444,"dy":0.0017,"dx":0.0017,"nx":28,"ny":28,"refTime":"2025-06-02T21:00:00:Z","depth":"2","parameterNumber":2,"parameterNumberName":"U-component_of_CURRENTS"},"data":[0,0,0,0,0,0,0,0,0,0,0,0,0,0,0,0,0,0,0,0,0,0,0,0,0,0,0,0,0,0,0,0,0,0,0,0,0,0,0,0,0,0,0,0,0,0,0,0,0,0,0,0,0,0,0,0,0,0,0.2,0.1999,0,0.1985,0.1984,0.1984,0.2076,0.2079,0.2082,0.2084,0.2116,0.2114,0.2113,0,0,0,0,0,0,0,0,0,0,0,0,0,0.2112,0.2109,0.2,0.1999,0.1999,0.1985,0.1984,0.1984,0.2076,0.2079,0.2082,0.2085,0.2116,0.2114,0.2112,0,0,0,0,0,0,0,0,0,0,0,0,0,0.2076,0.2108,0.2,0.2044,0.2047,0.1985,0.1984,0.1984,0.2075,0.2079,0.2083,0.2087,0.2117,0.2115,0.2112,0.2018,0,0,0.2105,0.2104,0,0,0,0,0,0,0,0,0.2078,0.2072,0.2037,0.204,0.2045,0.2037,0.2036,0.1998,0.2074,0.2064,0.2084,0.2089,0.2091,0.2091,0.2078,0.2019,0.202,0.2104,0.2103,0.2102,0.2101,0,0,0,0,0,0,0,0.208,0.2073,0.1993,0.2037,0.2041,0.2065,0.2065,0.2029,0.2056,0.2066,0.2072,0.207,0.2094,0.208,0.208,0.2021,0.2105,0.2102,0.2101,0.21,0.2041,0.2041,0,0,0,0,0,0,0.2077,0.2074,0.1994,0.1993,0.2072,0.206,0.2059,0.2035,0.2056,0.2062,0.2066,0.2074,0.2082,0.2082,0.2081,0.2107,0.2102,0.21,0.2098,0.2041,0.2041,0.2041,0,0,0,0,0,0,0.2079,0.2069,0.1995,0.2036,0.2028,0.2054,0.2026,0.2033,0.2062,0.2056,0.2065,0.2095,0.2085,0.2085,0.2083,0.2105,0.2099,0.2096,0.2041,0.2041,0.2041,0.2072,0,0,0,0,0,0,0.2082,0.2069,0.2062,0.2034,0.2026,0.1976,0.2022,0.2029,0.2052,0.2063,0.2081,0.2086,0.2089,0.2087,0.2081,0.2101,0.2094,0.2041,0.2041,0.2041,0.2071,0.2073,0.2074,0,0,0,0,0,0.2086,0.2046,0.2061,0.2053,0.201,0.1975,0.1973,0.2005,0.205,0.205,0.2073,0.2088,0.2083,0.2083,0.2077,0.2097,0.2041,0.2041,0.2041,0.207,0.2072,0.2074,0,0,0,0,0,0,0.2083,0.2051,0.2068,0.202,0.2013,0.1992,0.199,0.2014,0.2028,0.2056,0.2067,0.2071,0.2081,0.2072,0.2073,0.208,0.2071,0.2069,0.2095,0.2097,0.2098,0.2116,0.2092,0,0,0,0,0,0.2077,0.205,0.2028,0.1996,0.1991,0.1998,0.1995,0.2018,0.2019,0.2033,0.2048,0.2062,0.206,0.207,0.2058,0.2044,0.2059,0.2058,0.206,0.2061,0.2071,0.2105,0.2111,0.204,0.204,0.204,0,0,0.2069,0.2048,0.2035,0.1997,0.1995,0.1978,0.2007,0.2004,0.2011,0.2027,0.2049,0.2059,0.2055,0.2056,0.2061,0.2062,0.2088,0.2061,0.2063,0.2071,0.2105,0.2112,0.2119,0.204,0.204,0.204,0,0,0.2036,0.202,0.1996,0.1984,0.1981,0.1977,0.1985,0.1983,0.2011,0.2012,0.204,0.2066,0.2053,0.2067,0.2068,0.2063,0.2091,0.2069,0.2099,0.2132,0.2139,0.2145,0.2176,0.2184,0.2078,0.2078,0.2078,0,0.2043,0.1996,0.1985,0.1962,0.196,0.1982,0.197,0.1973,0.1982,0.2007,0.203,0.2058,0.2059,0.2074,0.2089,0.207,0.2097,0.2095,0.2137,0.2143,0.2149,0.2179,0.2188,0.2079,0.2079,0.2079,0.2079,0,0.1988,0.197,0.195,0.1935,0.1928,0.1916,0.1922,0.1945,0.1988,0.2006,0.2049,0.2055,0.2091,0.209,0.2091,0.2134,0.2143,0.2132,0.2138,0.2159,0.2188,0.2197,0.2081,0.2081,0.208,0.208,0,0,0.1974,0.1926,0.193,0.193,0.1921,0.191,0.1923,0.1942,0.1981,0.201,0.2059,0.2073,0.2121,0.2125,0.2139,0.2168,0.2232,0.2181,0.2182,0.2222,0.2319,0.2288,0.2295,0.2242,0.2244,0.2245,0.2325,0,0.1956,0.191,0.1896,0.1883,0.1866,0.1894,0.1902,0.1932,0.1976,0.2023,0.2065,0.2106,0.2119,0.216,0.2193,0.2221,0.2258,0.2212,0.2284,0.2286,0.2264,0.2304,0.2013,0.2057,0.2333,0.2335,0.2336,0,0.1922,0.1899,0.1875,0.1873,0.1873,0.1882,0.1937,0.1946,0.2009,0.2051,0.2119,0.2152,0.2214,0.2215,0.2299,0.2279,0.2311,0.2325,0.2328,0.2297,0.2271,0.2079,0.2063,0.2351,0.235,0.2349,0.2348,0,0.1924,0.1895,0.1883,0.1876,0.187,0.1904,0.1925,0.1979,0.2004,0.2092,0.2134,0.2205,0.2257,0.2311,0.2366,0.2349,0.2447,0.2418,0.2416,0.2414,0.2177,0.2151,0.2476,0.2476,0.2476,0.2476,0.2476,0,0.1897,0.1896,0.1895,0.1887,0.1907,0.1918,0.1966,0.2004,0.2062,0.2093,0.2167,0.2205,0.2289,0.2351,0.239,0.2446,0.2478,0.2436,0.2438,0.2178,0.2153,0.2411,0.2403,0.2479,0.2478,0.2477,0.2477,0,0.1888,0.1881,0.1873,0.1887,0.1904,0.193,0.1979,0.2003,0.2075,0.2123,0.2156,0.223,0.2328,0.2401,0.2485,0.2474,0.2523,0.253,0.2227,0.2192,0.2459,0.2451,0.2533,0.2533,0.2533,0.2532,0.2532,0,0.1865,0.1858,0.1879,0.1884,0.19,0.1941,0.1958,0.2016,0.2034,0.2124,0.2132,0.225,0.2301,0.2421,0.2388,0.2446,0.256,0.2254,0.216,0.2475,0.2468,0.246,0.2453,0.1853,0.1847,0.1842,0.1838,0,0.1822,0.1847,0.1838,0.1858,0.1884,0.1894,0.1932,0.1942,0.2002,0.205,0.2104,0.2157,0.2218,0.2129,0.2206,0.2196,0.2221,0.2164,0.2562,0.1898,0.1843,0.1834,0.1846,0.1797,0.1801,0.1804,0.1806,0.1808,0.1798,0.1789,0.1792,0.1811,0.1835,0.184,0.1841,0.1869,0.1894,0.1909,0.1998,0.1968,0.1934,0.1873,0.1862,0.184,0.1995,0.1917,0.1926,0.1942,0.1864,0.1813,0.1746,0.1749,0.1753,0.1756,0.1758,0,0.1729,0.1736,0.1739,0.1743,0.1739,0.1799,0.1801,0.1775,0.1784,0.1746,0.1786,0.152,0.148,0.1508,0.1355,0.1385,0.1311,0.1396,0.126,0.13,0.1336,0.1224,0.0939,0.0937,0.0936,0.0935,0,0,0.1686,0.1652,0.1653,0.1633,0.167,0.1667,0.1671,0.1639,0.1581,0.14,0.1284,0.1368,0.1369,0.1099,0.1088,0.1,0.1146,0.0956,0.1593,0.1465,0.15,0.16,0.1469,0,0,0,0,0]},{"header":{"parameterUnit":"m.s-1","parameterCategory":2,"la1":30.2991,"la2":30.254,"lo1":-89.0895,"lo2":-89.0444,"dy":0.0017,"dx":0.0017,"nx":28,"ny":28,"refTime":"2025-06-02T21:00:00:Z","depth":"2","parameterNumber":3,"parameterNumberName":"V-component_of_CURRENTS"},"data":[0,0,0,0,0,0,0,0,0,0,0,0,0,0,0,0,0,0,0,0,0,0,0,0,0,0,0,0,0,0,0,0,0,0,0,0,0,0,0,0,0,0,0,0,0,0,0,0,0,0,0,0,0,0,0,0,0,0,-0.0454,-0.0454,0,-0.0527,-0.0528,-0.0529,-0.0547,-0.0546,-0.0546,-0.0545,-0.0635,-0.0637,-0.064,0,0,0,0,0,0,0,0,0,0,0,0,0,-0.0368,-0.0369,-0.0454,-0.0454,-0.0455,-0.0527,-0.0528,-0.0529,-0.0547,-0.0546,-0.0545,-0.0545,-0.0634,-0.0637,-0.064,0,0,0,0,0,0,0,0,0,0,0,0,0,-0.042,-0.037,-0.0453,-0.0472,-0.0475,-0.0527,-0.0528,-0.053,-0.0547,-0.0546,-0.0545,-0.0545,-0.0632,-0.0637,-0.0641,-0.0683,0,0,-0.0654,-0.0656,0,0,0,0,0,0,0,0,-0.0417,-0.0423,-0.0469,-0.0471,-0.0474,-0.0527,-0.0531,-0.0582,-0.0547,-0.052,-0.0545,-0.0544,-0.06,-0.0607,-0.0623,-0.0687,-0.0691,-0.0654,-0.0657,-0.0659,-0.066,0,0,0,0,0,0,0,-0.0413,-0.042,-0.0483,-0.047,-0.0473,-0.0491,-0.0497,-0.0541,-0.0564,-0.0522,-0.0524,-0.0532,-0.0602,-0.0619,-0.0625,-0.0693,-0.0654,-0.0658,-0.0661,-0.0662,-0.078,-0.0781,0,0,0,0,0,0,-0.0403,-0.0417,-0.0481,-0.0485,-0.0443,-0.0493,-0.05,-0.0511,-0.0563,-0.057,-0.0532,-0.0532,-0.0612,-0.062,-0.0629,-0.0656,-0.0659,-0.0663,-0.0665,-0.078,-0.078,-0.0781,0,0,0,0,0,0,-0.0401,-0.0408,-0.0478,-0.0452,-0.0462,-0.0495,-0.0507,-0.0513,-0.0533,-0.0571,-0.0578,-0.0546,-0.0612,-0.0623,-0.0664,-0.066,-0.0665,-0.0669,-0.0779,-0.078,-0.078,-0.0727,0,0,0,0,0,0,-0.0398,-0.0407,-0.0418,-0.0452,-0.0463,-0.0508,-0.0508,-0.0515,-0.0538,-0.0539,-0.0586,-0.0593,-0.0612,-0.0657,-0.0668,-0.0666,-0.0672,-0.0778,-0.0779,-0.078,-0.0728,-0.0726,-0.0724,0,0,0,0,0,-0.0395,-0.0408,-0.0418,-0.0427,-0.0476,-0.0508,-0.0516,-0.0537,-0.054,-0.0551,-0.0578,-0.0592,-0.0671,-0.0661,-0.0674,-0.0673,-0.0778,-0.0779,-0.078,-0.0729,-0.0727,-0.0724,0,0,0,0,0,0,-0.038,-0.0412,-0.0424,-0.0448,-0.0476,-0.0511,-0.0527,-0.0542,-0.0574,-0.0574,-0.0605,-0.0615,-0.0647,-0.0676,-0.0665,-0.0712,-0.0725,-0.0729,-0.0682,-0.068,-0.0678,-0.0648,-0.0676,0,0,0,0,0,-0.0382,-0.0399,-0.0433,-0.0453,-0.0466,-0.0499,-0.0517,-0.053,-0.056,-0.0573,-0.0604,-0.0637,-0.0664,-0.0683,-0.0716,-0.0751,-0.0757,-0.0758,-0.0756,-0.0754,-0.074,-0.0752,-0.0749,-0.0785,-0.0785,-0.0785,0,0,-0.0382,-0.0403,-0.0413,-0.0451,-0.0475,-0.0489,-0.0508,-0.0534,-0.0542,-0.058,-0.0605,-0.0635,-0.0673,-0.0699,-0.0716,-0.0722,-0.0747,-0.0756,-0.0753,-0.074,-0.0753,-0.0749,-0.0746,-0.0786,-0.0785,-0.0785,0,0,-0.0382,-0.0409,-0.0419,-0.0438,-0.0471,-0.0491,-0.0497,-0.0534,-0.0547,-0.0581,-0.0598,-0.0621,-0.0683,-0.0692,-0.0707,-0.072,-0.0736,-0.0739,-0.0705,-0.0718,-0.0714,-0.0711,-0.0706,-0.0703,-0.0738,-0.0738,-0.0738,0,-0.0379,-0.0397,-0.0428,-0.0438,-0.0449,-0.0487,-0.0492,-0.0515,-0.0559,-0.0564,-0.0583,-0.0638,-0.0672,-0.068,-0.068,-0.0711,-0.0719,-0.0707,-0.0712,-0.0709,-0.0707,-0.0703,-0.07,-0.0736,-0.0736,-0.0736,-0.0736,0,-0.038,-0.0395,-0.0403,-0.0424,-0.0441,-0.0456,-0.0482,-0.05,-0.0524,-0.054,-0.0563,-0.0604,-0.0629,-0.0647,-0.0669,-0.0668,-0.0678,-0.0704,-0.0709,-0.0699,-0.0697,-0.0695,-0.0732,-0.0733,-0.0734,-0.0734,0,0,-0.0372,-0.0396,-0.04,-0.0398,-0.0432,-0.0441,-0.0454,-0.0472,-0.0462,-0.0511,-0.0499,-0.0549,-0.0564,-0.0582,-0.061,-0.0621,-0.0613,-0.0653,-0.0655,-0.0632,-0.0628,-0.0524,-0.0512,-0.0642,-0.0642,-0.0642,-0.0629,0,-0.0364,-0.0368,-0.0385,-0.0385,-0.0387,-0.0412,-0.0412,-0.0428,-0.0449,-0.0449,-0.0483,-0.0491,-0.0542,-0.0545,-0.0565,-0.0597,-0.0607,-0.0613,-0.0655,-0.0656,-0.0551,-0.0506,-0.0516,-0.0495,-0.0627,-0.0627,-0.0626,0,-0.036,-0.036,-0.0358,-0.0348,-0.035,-0.0355,-0.0349,-0.0355,-0.0364,-0.0371,-0.0389,-0.0415,-0.043,-0.0478,-0.0523,-0.0526,-0.0571,-0.0601,-0.0602,-0.0518,-0.0547,-0.053,-0.0486,-0.0623,-0.0624,-0.0624,-0.0624,0,-0.0335,-0.0339,-0.0332,-0.0334,-0.0334,-0.0331,-0.0333,-0.0337,-0.0321,-0.0323,-0.03,-0.0338,-0.0338,-0.0405,-0.0458,-0.05,-0.0493,-0.0564,-0.0511,-0.0505,-0.0524,-0.0519,-0.0594,-0.0594,-0.0594,-0.0594,-0.0594,0,-0.0318,-0.0313,-0.032,-0.0316,-0.029,-0.0302,-0.0273,-0.0275,-0.0256,-0.0211,-0.0258,-0.0215,-0.0321,-0.0331,-0.0414,-0.0419,-0.0461,-0.0477,-0.0484,-0.0505,-0.0497,-0.0627,-0.0631,-0.0594,-0.0594,-0.0594,-0.0594,0,-0.0298,-0.0307,-0.0294,-0.0287,-0.0283,-0.0268,-0.024,-0.0208,-0.0195,-0.0134,-0.0126,-0.0121,-0.0112,-0.0189,-0.0265,-0.0329,-0.0369,-0.0369,-0.0363,-0.0367,-0.0397,-0.0399,-0.0327,-0.0323,-0.0319,-0.0317,-0.0314,0,-0.0289,-0.0282,-0.0271,-0.0256,-0.0257,-0.0235,-0.0206,-0.0188,-0.0144,-0.0061,-0.0015,0.0021,0.0102,0.0064,-0.0069,-0.0149,-0.0228,-0.0216,-0.0291,-0.0349,-0.0365,-0.0372,-0.0379,-0.0315,-0.0313,-0.0311,-0.031,0,-0.0262,-0.0265,-0.0248,-0.0219,-0.0196,-0.0152,-0.0111,-0.0057,-0.0005,0.0084,0.0209,0.0291,0.0268,0.0218,0.0126,0.0037,-0.0202,-0.0176,-0.0245,-0.0352,-0.0329,-0.0347,-0.0356,-0.0294,-0.0296,-0.0297,-0.0298,-0.0298,-0.0242,-0.0219,-0.0199,-0.0165,-0.0135,-0.0061,0.0004,0.0092,0.0216,0.0403,0.0429,0.0575,0.0426,0.0364,0.0214,0.0002,-0.0022,-0.0131,-0.0142,-0.0154,-0.0125,-0.0094,-0.001,-0.001,-0.001,-0.001,-0.001,0,-0.02,-0.0177,-0.0141,-0.0088,-0.0029,-0.0034,0.0081,0.0188,0.0378,0.0561,0.0735,0.0676,0.0645,0.0449,0.0157,0.002,-0.007,-0.0034,-0.0153,-0.0165,-0.0178,-0.0157,-0.0047,-0.0047,-0.0047,-0.0048,0,0,-0.0174,-0.0123,-0.0094,0.0005,0.0037,0.0138,0.0216,0.0393,0.0538,0.0782,0.0878,0.1016,0.0725,0.052,0.0291,0.0115,0.0011,0.0085,0.0129,0.0003,-0.0007,-0.0219,-0.0196,0,0,0,0,0]}],[{"header":{"parameterUnit":"m.s-1","parameterCategory":2,"la1":30.2991,"la2":30.254,"lo1":-89.0895,"lo2":-89.0444,"dy":0.0017,"dx":0.0017,"nx":28,"ny":28,"refTime":"2025-06-02T21:00:00:Z","depth":"4","parameterNumber":2,"parameterNumberName":"U-component_of_CURRENTS"},"data":[0,0,0,0,0,0,0,0,0,0,0,0,0,0,0,0,0,0,0,0,0,0,0,0,0,0,0,0,0,0,0,0,0,0,0,0,0,0,0,0,0,0,0,0,0,0,0,0,0,0,0,0,0,0,0,0,0,0,-0.006,-0.006,0,-0.0039,-0.0038,-0.0038,0.0007,0.0007,0.0008,0.0008,0.0253,0.0259,0.0265,0,0,0,0,0,0,0,0,0,0,0,0,0,-0.0077,-0.0076,-0.006,-0.006,-0.006,-0.0039,-0.0038,-0.0038,0.0007,0.0007,0.0008,0.0009,0.0251,0.0258,0.0266,0,0,0,0,0,0,0,0,0,0,0,0,0,-0.006,-0.0076,-0.006,-0.0038,-0.0036,-0.0039,-0.0038,-0.0038,0.0006,0.0007,0.0008,0.0009,0.0249,0.0258,0.0267,0.0305,0,0,0.0294,0.0298,0,0,0,0,0,0,0,0,-0.0061,-0.0059,-0.0041,-0.004,-0.0038,-0.0021,0.0045,0.0087,0.0006,-0.0006,0.0008,0.0009,0.0179,0.0194,0.0198,0.0317,0.0327,0.0295,0.03,0.0304,0.0307,0,0,0,0,0,0,0,-0.0063,-0.006,-0.0048,-0.0042,-0.0039,-0.0035,-0.0031,0.0053,0.0089,-0.0005,-0.0003,-0.0006,0.0183,0.0189,0.0205,0.0331,0.0295,0.0303,0.0308,0.0312,0.0647,0.065,0,0,0,0,0,0,-0.0073,-0.0061,-0.0049,-0.0048,-0.0052,-0.0035,-0.0031,-0.0024,0.0083,0.0097,-0.0007,-0.0004,0.0173,0.0194,0.0214,0.041,0.0304,0.0313,0.0318,0.0643,0.0648,0.0651,0,0,0,0,0,0,-0.0073,-0.0071,-0.005,-0.0058,-0.0055,-0.0036,-0.0029,-0.0024,0.0007,0.0078,0.0098,0.0021,0.0175,0.0201,0.0334,0.0415,0.0317,0.0325,0.0639,0.0645,0.065,0.0711,0,0,0,0,0,0,-0.0073,-0.0071,-0.0065,-0.0058,-0.0055,-0.0037,-0.003,-0.0025,-0.0001,0.0004,0.0109,0.0131,0.0178,0.032,0.0343,0.0425,0.0332,0.0635,0.0642,0.0648,0.0705,0.0718,0.0729,0,0,0,0,0,-0.0074,-0.0068,-0.0065,-0.0063,-0.0048,-0.0037,-0.0034,-0.0017,0.0,0.0016,0.0109,0.0129,0.0378,0.033,0.0356,0.0443,0.0632,0.064,0.0647,0.0699,0.0715,0.0729,0,0,0,0,0,0,-0.007,-0.0064,-0.0059,-0.0051,-0.004,-0.0031,-0.0022,-0.0004,0.0073,0.0096,0.0172,0.0201,0.035,0.0386,0.0331,0.0559,0.051,0.0523,0.054,0.0556,0.0568,0.0555,0.0339,0,0,0,0,0,-0.007,-0.007,-0.0056,-0.0055,-0.0044,-0.0028,-0.0019,-0.0002,0.0057,0.0089,0.018,0.0285,0.0396,0.0465,0.0557,0.0679,0.065,0.0753,0.0765,0.0775,0.0784,0.0788,0.08,0.0677,0.0677,0.0677,0,0,-0.007,-0.0072,-0.007,-0.0056,-0.0046,-0.0012,-0.0018,0.0002,0.0063,0.011,0.0249,0.0333,0.0438,0.0581,0.0651,0.0626,0.0795,0.0785,0.0793,0.0796,0.0797,0.0808,0.0818,0.0683,0.0682,0.0681,0,0,-0.0078,-0.0068,-0.0064,-0.0044,-0.0027,-0.0005,0.001,0.0059,0.0116,0.0252,0.0305,0.0423,0.0611,0.068,0.0746,0.0878,0.0856,0.0931,0.0992,0.0997,0.1005,0.1012,0.0971,0.0974,0.094,0.094,0.094,0,-0.0077,-0.0065,-0.0061,-0.004,-0.0021,0.0009,0.0041,0.0108,0.0208,0.0285,0.0318,0.058,0.0658,0.0811,0.0874,0.0905,0.089,0.0924,0.1007,0.1014,0.102,0.0976,0.0979,0.0944,0.0944,0.0943,0.0943,0,-0.0068,-0.0048,-0.0042,0.0001,0.0024,0.0053,0.0133,0.0218,0.0314,0.04,0.0592,0.0695,0.0849,0.09,0.095,0.1056,0.1023,0.1011,0.0954,0.1035,0.0985,0.0986,0.095,0.0948,0.0947,0.0946,0,0,-0.0083,-0.0043,-0.0036,-0.0008,0.0052,0.0076,0.0196,0.0316,0.0419,0.0572,0.0703,0.0911,0.0969,0.1043,0.1094,0.1114,0.1147,0.1104,0.1102,0.1035,0.1133,0.0991,0.0978,0.1154,0.1156,0.1157,0.1069,0,-0.0072,-0.0034,-0.0012,0.0053,0.0087,0.0159,0.0262,0.0384,0.0525,0.0673,0.0807,0.0973,0.1024,0.1109,0.1142,0.1152,0.1159,0.117,0.1089,0.1086,0.0928,0.0979,0.1161,0.107,0.107,0.107,0.1071,0,-0.0055,-0.0036,0.0012,0.0089,0.0113,0.0179,0.0336,0.0438,0.0645,0.076,0.0931,0.104,0.116,0.1162,0.1209,0.122,0.1199,0.1176,0.1172,0.102,0.0948,0.0982,0.1072,0.1072,0.1072,0.1072,0.1072,0,-0.0068,-0.0006,0.0027,0.0054,0.0147,0.0221,0.0309,0.0493,0.0599,0.0829,0.0922,0.1082,0.1161,0.1181,0.1184,0.1219,0.115,0.1177,0.1015,0.1002,0.1123,0.1116,0.1179,0.1179,0.118,0.118,0.118,0,-0.0057,-0.0026,0.004,0.0066,0.0151,0.0228,0.0366,0.0495,0.066,0.0769,0.0972,0.1035,0.1176,0.1175,0.1166,0.1069,0.1137,0.1024,0.0979,0.115,0.1148,0.1121,0.1116,0.1177,0.1177,0.1178,0.1179,0,-0.0078,-0.0043,-0.0,0.0098,0.0145,0.0219,0.0384,0.0479,0.065,0.0776,0.0854,0.1017,0.1024,0.1067,0.1054,0.1022,0.095,0.0886,0.102,0.0984,0.0809,0.0808,0.0742,0.0737,0.0732,0.0728,0.0725,0,-0.0084,-0.007,0.0011,0.0044,0.0099,0.0222,0.0299,0.0476,0.0559,0.0725,0.075,0.084,0.0923,0.0789,0.0827,0.0769,0.0761,0.0731,0.0846,0.0805,0.0769,0.0776,0.0782,0.0718,0.0716,0.0715,0.0714,0,-0.0109,-0.0089,-0.006,0.001,0.0085,0.0163,0.0291,0.0342,0.0509,0.0634,0.0682,0.0726,0.0691,0.0703,0.0647,0.0606,0.0773,0.0684,0.0696,0.0804,0.0774,0.0745,0.0756,0.0698,0.07,0.0701,0.0702,0,-0.0131,-0.0123,-0.0087,-0.0019,0.0047,0.0103,0.0181,0.0266,0.0364,0.055,0.0517,0.0582,0.0657,0.0604,0.0528,0.05,0.0533,0.056,0.058,0.0598,0.0592,0.0536,0.0345,0,0,0,0,0,-0.014,-0.0133,-0.0105,-0.0038,0.0011,0.006,0.0161,0.0229,0.0362,0.0376,0.0474,0.0448,0.0438,0.0444,0.0389,0.0426,0.0502,0.0357,0.0536,0.0608,0.0627,0.0632,0,0,0,0,0,0,-0.015,-0.0134,-0.0124,-0.0076,-0.0037,0.0025,0.008,0.0159,0.019,0.0317,0.0305,0.0403,0.0377,0.0458,0.0376,0.0374,0.0472,0.0386,0.0384,0.0597,0.0614,0.0629,0.0642,0,0,0,0,0]},{"header":{"parameterUnit":"m.s-1","parameterCategory":2,"la1":30.2991,"la2":30.254,"lo1":-89.0895,"lo2":-89.0444,"dy":0.0017,"dx":0.0017,"nx":28,"ny":28,"refTime":"2025-06-02T21:00:00:Z","depth":"4","parameterNumber":3,"parameterNumberName":"V-component_of_CURRENTS"},"data":[0,0,0,0,0,0,0,0,0,0,0,0,0,0,0,0,0,0,0,0,0,0,0,0,0,0,0,0,0,0,0,0,0,0,0,0,0,0,0,0,0,0,0,0,0,0,0,0,0,0,0,0,0,0,0,0,0,0,0.0571,0.0571,0,0.0604,0.0604,0.0605,0.0662,0.0663,0.0663,0.0664,0.0696,0.0696,0.0696,0,0,0,0,0,0,0,0,0,0,0,0,0,0.0545,0.0546,0.0571,0.0571,0.0572,0.0604,0.0604,0.0605,0.0662,0.0663,0.0664,0.0665,0.0696,0.0696,0.0696,0,0,0,0,0,0,0,0,0,0,0,0,0,0.0567,0.0546,0.0571,0.0602,0.0605,0.0603,0.0604,0.0605,0.0661,0.0663,0.0664,0.0665,0.0696,0.0696,0.0696,0.067,0,0,0.0696,0.0696,0,0,0,0,0,0,0,0,0.0566,0.0568,0.0597,0.06,0.0603,0.0628,0.0607,0.0626,0.0661,0.0642,0.0664,0.0666,0.067,0.0673,0.0679,0.0671,0.0672,0.0696,0.0696,0.0696,0.0696,0,0,0,0,0,0,0,0.0564,0.0567,0.0586,0.0597,0.0601,0.061,0.0615,0.0611,0.065,0.0644,0.0648,0.0647,0.0673,0.0679,0.068,0.0673,0.0696,0.0696,0.0696,0.0696,0.0652,0.0651,0,0,0,0,0,0,0.0555,0.0566,0.0585,0.0587,0.0585,0.0609,0.0615,0.0621,0.0651,0.0656,0.0646,0.065,0.0678,0.068,0.0681,0.0693,0.0696,0.0696,0.0696,0.0653,0.0652,0.065,0,0,0,0,0,0,0.0555,0.0557,0.0584,0.0575,0.0579,0.0608,0.0614,0.062,0.066,0.0652,0.0658,0.0682,0.0679,0.0681,0.0712,0.0693,0.0696,0.0696,0.0655,0.0653,0.0651,0.0689,0,0,0,0,0,0,0.0554,0.0557,0.0568,0.0575,0.0579,0.0599,0.0613,0.062,0.0654,0.066,0.0684,0.0686,0.0681,0.0712,0.0712,0.0693,0.0696,0.0656,0.0654,0.0652,0.0689,0.0688,0.0688,0,0,0,0,0,0.0553,0.0562,0.0568,0.0571,0.059,0.0599,0.0604,0.0629,0.0655,0.0671,0.0698,0.0687,0.0696,0.0713,0.0713,0.0693,0.0657,0.0654,0.0652,0.0689,0.0688,0.0688,0,0,0,0,0,0,0.0558,0.0568,0.0576,0.0588,0.0599,0.0609,0.0628,0.0646,0.068,0.0696,0.07,0.0704,0.0714,0.0698,0.0716,0.0667,0.0663,0.066,0.0691,0.069,0.0689,0.069,0.0696,0,0,0,0,0,0.0561,0.0571,0.058,0.059,0.0601,0.0621,0.0634,0.065,0.0672,0.0691,0.0709,0.0708,0.0693,0.0695,0.0686,0.0678,0.0643,0.0652,0.0651,0.0651,0.0648,0.0577,0.057,0.0642,0.0642,0.0642,0,0,0.0569,0.057,0.0581,0.0592,0.0608,0.0626,0.0635,0.066,0.0685,0.0685,0.0738,0.0722,0.0694,0.0684,0.0682,0.0676,0.0614,0.0648,0.0649,0.0645,0.0574,0.0567,0.0561,0.064,0.064,0.0641,0,0,0.0575,0.0592,0.0603,0.0617,0.0635,0.0645,0.066,0.0687,0.0716,0.0751,0.074,0.0724,0.0732,0.0691,0.0671,0.0659,0.062,0.0641,0.0639,0.0571,0.0564,0.0559,0.052,0.0511,0.0634,0.0634,0.0634,0,0.0582,0.06,0.0608,0.0622,0.0635,0.066,0.0678,0.0706,0.0742,0.0756,0.0776,0.0743,0.0727,0.0675,0.0665,0.0658,0.0623,0.0652,0.0572,0.0565,0.0558,0.052,0.0509,0.0635,0.0635,0.0635,0.0635,0,0.0595,0.0619,0.0631,0.0656,0.0666,0.0692,0.0717,0.0754,0.079,0.0798,0.079,0.0761,0.073,0.0704,0.0689,0.0613,0.0606,0.0589,0.0581,0.0554,0.0515,0.0503,0.0637,0.0637,0.0637,0.0636,0,0,0.0588,0.0633,0.0642,0.066,0.0692,0.07,0.0745,0.0772,0.0796,0.0816,0.0816,0.0772,0.0745,0.0716,0.0668,0.0601,0.0531,0.0576,0.0572,0.0552,0.0397,0.0385,0.0371,0.0499,0.0496,0.0494,0.0395,0,0.0603,0.0634,0.065,0.069,0.071,0.0743,0.0772,0.0795,0.0821,0.0832,0.079,0.0777,0.0751,0.0725,0.0652,0.0557,0.0497,0.0561,0.0413,0.0409,0.0413,0.0355,0.0487,0.0386,0.0383,0.0381,0.0379,0,0.0614,0.0629,0.0668,0.0705,0.0717,0.0755,0.0793,0.082,0.0834,0.0846,0.0818,0.079,0.0704,0.0688,0.0522,0.0563,0.0485,0.0415,0.041,0.0375,0.0373,0.041,0.0357,0.0359,0.036,0.0362,0.0363,0,0.0595,0.0647,0.0677,0.0694,0.0734,0.0778,0.0817,0.084,0.0858,0.0864,0.0856,0.0769,0.072,0.0605,0.0478,0.0495,0.0292,0.0299,0.0219,0.0219,0.0248,0.0255,0.0181,0.0181,0.0182,0.0182,0.0182,0,0.0597,0.0624,0.0692,0.0711,0.0763,0.0786,0.0836,0.0873,0.0883,0.0865,0.0863,0.0793,0.0693,0.0575,0.0466,0.0298,0.0283,0.0205,0.0179,0.0268,0.0278,0.024,0.0249,0.0178,0.0179,0.018,0.018,0,0.0571,0.0613,0.0651,0.072,0.0763,0.0802,0.0886,0.0895,0.0921,0.0894,0.0896,0.0808,0.065,0.0545,0.0344,0.0282,0.0129,0.0079,0.0193,0.0178,0.0114,0.0125,-0.0013,-0.0015,-0.0016,-0.0017,-0.0018,0,0.0557,0.0569,0.0668,0.0704,0.0759,0.0834,0.0873,0.0927,0.0919,0.0864,0.0821,0.0709,0.0629,0.0349,0.0239,0.0066,0.0045,0.0008,0.0053,0.0098,0.0087,0.01,0.0113,-0.002,-0.002,-0.0021,-0.0021,0,0.0506,0.0552,0.0592,0.0679,0.0749,0.0807,0.0875,0.0861,0.0863,0.0884,0.0738,0.0632,0.0453,0.029,0.018,0.0043,0.0054,-0.0006,-0.0003,0.0038,0.0088,0.0081,0.0095,-0.0026,-0.0025,-0.0025,-0.0024,0,0.0481,0.0502,0.0566,0.0646,0.073,0.0773,0.0799,0.0779,0.078,0.0731,0.0652,0.0509,0.0439,0.027,0.013,0.004,0.0025,0.0027,0.0028,0.0032,0.0085,0.0158,0.0023,0,0,0,0,0,0.0456,0.0482,0.0527,0.0603,0.0679,0.0746,0.079,0.0786,0.0778,0.0673,0.0678,0.051,0.0325,0.0227,0.0128,0.0108,0.0014,-0.0008,0.0019,-0.0051,-0.0046,0.0008,0,0,0,0,0,0,0.0436,0.0481,0.051,0.0567,0.0617,0.0685,0.0724,0.07,0.0642,0.0621,0.0506,0.0506,0.0309,0.0379,0.0128,0.0101,0.011,-0.008,-0.0081,-0.0054,-0.0049,-0.0045,0.0012,0,0,0,0,0]}]]